Location: Allonne
(49.4086°N, 2.1143°E)
Time: 03:20:08
(UTC+00:00)

UNISAT 6 - Pass Details

Date: 08 December 2023
Orbit: 596 x 671 km, 97.7° (Epoch: 22 February)

Event Time Altitude Azimuth Distance (km) Brightness Sun altitude
Rises 16:33:53 0° 18° (NNE) 2,968 ? -6.6°
Reaches altitude 10° 16:36:13 10° 25° (NNE) 2,040 ? -6.9°
Maximum altitude 16:40:28 44° 98° (E) 876 ? -7.5°
Drops below altitude 10° 16:44:35 10° 171° (S) 1,978 ? -8.1°
Sets 16:46:49 0° 178° (S) 2,867 ? -8.4°
